星链-36122(STARLINK-36122)

导读 | 豆包AI

STARLINK-36122是美国SpaceX公司星链星座的成员卫星,于2025年12月7日发射入轨,运行于低地球轨道,属于星链全球卫星互联网组网的最新批次卫星。作为星链项目扩容的一部分,该卫星延续了星链星座设计特点,支持全球高速低延迟宽带互联网接入,助力覆盖偏远地区网络盲区,服务各类应急通信、移动互联网场景,是全球规模最大低轨卫星通信星座持续扩展的组成单元。

基本信息
目录编号:
66952
目录名称:
STARLINK-36122
国际标识:
2025-286AD
轨道中心:
EARTH
卫星名称:
星链-36122
卫星全名:
星链-36122(STARLINK-36122)
卫星状态:
在轨 (已飞行97 天)
发射日期:
2025-12-07 UTC
国别 :
美国 (US)
星等 :
--
轨道信息
数据来源 国际轨道数据
星历时间: 2026-03-13T11:58:55+0800
23小时前
查看轨道信息
半长轴: 6853.325km
偏心率: 0.0001128
轨道倾角: 53.160°
近地点辐角 298.251°
升交点赤经 342.683°
平近点角 61.837°
近地点: 474.414km
远地点: 475.962km
周期: 94.105分钟
每日圈数: 15.302092
详细信息
固有亮度:
5
最大亮度:
2.5
卫星平台:
Starlink V1.0
覆盖范围:
全球
运营商:
太空探索技术公司
运营商所在国:
美国
制造商(研发单位):
太空探索技术公司
制造商所在国:
美国
使用方式:
暂无
卫星简介
Starlink 计划是 SpaceX 推出的全球卫星互联网项目,通过发射低轨道卫星,为全球尤其是偏远地区提供高速、低延迟的互联网服务。自 2019 年起,Starlink 已部署数千颗卫星,旨在缩小全球数字鸿沟,推动互联网普及。该项目还为军事、航空等行业提供通信支持,带来广泛经济效益。
2D轨道图
3D轨道图
轨道高度分析图
轨道倾角分析图
轨道综合分析图
查看轨道综合分析图